This is the latest recevied weather packets stored in our database for station/object VO2AGO. If no packets are shown the sender has not sent any weather packets the latest 10 day(s).
| Time | Temp. | Humidity | Pressure | Rain* | Wind** | Luminosity | Snow |
|---|---|---|---|---|---|---|---|
| 1777325752 | 13.33° C | 50% | 102.4 hPa | 0 mm | 0 m/s | 1205 W/m² | - |
| 1777325303 | 12.22° C | 54% | 102.4 hPa | 0 mm | 0 m/s | 1582 W/m² | - |
| 1777324852 | 11.67° C | 58% | 102.4 hPa | 0 mm | 0 m/s | 515 W/m² | - |
| 1777324405 | 11.67° C | 59% | 102.4 hPa | 0 mm | 0 m/s | 474 W/m² | - |
| 1777323952 | 11.67° C | 58% | 102.4 hPa | 0 mm | 0 m/s | 410 W/m² | - |
| 1777323503 | 12.22° C | 56% | 102.4 hPa | 0 mm | 0 m/s | 413 W/m² | - |
| 1777323052 | 12.22° C | 54% | 102.4 hPa | 0 mm | 0 m/s | 450 W/m² | - |
| 1777322604 | 12.78° C | 51% | 102.4 hPa | 0 mm | 0 m/s | 481 W/m² | - |
| 1777322152 | 13.33° C | 50% | 102.4 hPa | 0 mm | 0 m/s | 609 W/m² | - |
| 1777321702 | 13.33° C | 49% | 102.4 hPa | 0 mm | 0 m/s | 684 W/m² | - |
| 1777321252 | 13.89° C | 48% | 102.4 hPa | 0 mm | 0 m/s | 770 W/m² | - |
| 1777320803 | 14.44° C | 47% | 102.4 hPa | 0 mm | 0 m/s | 849 W/m² | - |
| 1777320352 | 15° C | 47% | 102.4 hPa | 0 mm | 0 m/s | 1774 W/m² | - |
| 1777319902 | 14.44° C | 47% | 102.4 hPa | 0 mm | 0 m/s | 846 W/m² | - |
| 1777319452 | 14.44° C | 47% | 102.4 hPa | 0 mm | 0 m/s | 1291 W/m² | - |
| 1777319002 | 15° C | 45% | 102.4 hPa | 0 mm | 0 m/s | 1253 W/m² | - |
| 1777318552 | 15.56° C | 43% | 102.4 hPa | 0 mm | 0 m/s | 1090 W/m² | - |
| 1777318102 | 16.11° C | - | - | - | 0 m/s | 1106 W/m² | - |
| 1777317652 | 17.22° C | - | - | - | 0 m/s | 1121 W/m² | - |
| 1777317203 | 17.22° C | 39% | 102.4 hPa | 0 mm | 0 m/s | 1925 W/m² | - |
| 1777316752 | 17.78° C | 39% | 102.4 hPa | 0 mm | 0 m/s | 1783 W/m² | - |
| 1777316302 | 16.67° C | 40% | 102.4 hPa | 0 mm | 0 m/s | 1802 W/m² | - |
| 1777315853 | 17.22° C | - | - | - | 0 m/s | 1106 W/m² | - |
| 1777315402 | 18.33° C | - | - | - | 0 m/s | 1118 W/m² | - |
| 1777314952 | 17.78° C | 39% | 102.4 hPa | 0 mm | 0 m/s | 1618 W/m² | - |
* Rain latest hour (hover to see other rain measurements)
** Current wind speed in m/s (hover to see current wind gust speed)